SCP
0 0 0 0 0 0 0 0 0 0 0 0 0 0 0 0 0 0 0 0 0 0 0 0 0 0 0 0 0 0 0 0 0 0 0 0 0 0 0 0 0 0 0
0 0 0 0 0 0 0 0 0 0 0 0 0 0 0 0 0 0 0 0 0 0 0 0 0 0 0 0 0 0 0 0 0 0 0 0 0 0 0 0 0 0 1
0 0 0 0 0 0 0 0 0 0 0 0 0 0 0 0 0 0 0 0 0 0 0 0 0 0 0 0 0 0 0 0 0 0 0 0 0 0 0 0 0 1 1
0 0 0 1 1 0 0 0 0 0 0 0 0 0 0 0 0 0 0 0 0 0 0 0 0 0 0 0 0 0 0 0 0 0 0 0 0 0 0 0 0 1 1
0 0 1 1 1 0 0 0 0 0 0 0 0 0 0 0 0 0 0 0 0 0 0 0 0 0 0 0 0 0 0 0 0 0 0 0 0 1 1 0 0 0 0
0 0 1 1 1 0 0 0 0 0 0 1 0 0 0 0 1 1 1 1 1 1 0 0 0 0 0 0 0 0 0 0 0 0 0 0 1 1 1 0 0 0 0
0 1 1 2 1 1 1 1 1 1 1 1 1 1 1 1 1 1 1 1 1 1 1 0 0 0 0 0 0 0 1 0 0 0 0 0 1 1 1 0 0 0 0
0 1 1 2 2 1 1 1 1 1 1 1 1 1 1 1 1 1 1 1 1 1 1 1 1 0 0 0 0 1 1 1 0 0 0 0 1 1 0 0 0 0 0
0 1 1 2 2 2 2 2 1 1 1 1 1 1 1 1 1 1 1 1 1 1 1 1 1 1 1 1 1 1 1 1 1 0 0 0 1 1 0 0 0 0 0
0 1 1 1 2 2 2 2 2 1 1 1 1 1 1 1 1 1 1 1 1 1 1 1 1 1 1 1 1 1 1 1 1 0 0 1 1 1 0 0 0 1 1
0 0 0 1 1 2 2 2 2 2 1 1 1 1 1 1 1 1 1 1 1 1 1 1 1 1 1 1 1 1 1 1 1 1 1 1 1 1 1 1 1 1 1
0 0 0 0 1 1 2 2 2 2 2 1 1 1 1 1 1 1 1 1 1 1 1 1 1 1 2 2 2 2 2 1 1 1 1 1 1 1 1 1 1 1 1
0 0 0 0 0 1 1 2 2 2 2 2 1 1 1 1 1 1 1 1 1 1 1 1 1 1 1 2 2 2 2 2 1 1 1 1 1 1 1 1 1 1 1
0 0 0 0 0 1 1 2 2 2 2 2 2 2 2 2 1 1 1 1 1 1 1 1 0 1 2 2 3 3 3 2 2 1 1 1 1 1 1 1 1 1 1
0 0 0 0 0 1 1 2 2 2 2 2 2 2 2 2 1 1 1 1 1 1 1 1 1 1 2 3 3 3 3 2 2 1 1 1 1 1 1 2 1 1 1
0 0 0 0 0 1 1 1 1 1 1 2 2 2 2 1 1 1 1 1 1 1 1 2 2 2 3 4 4 3 3 3 2 2 2 1 1 1 1 2 1 1 1
0 0 0 0 0 0 0 0 0 1 1 1 1 1 1 1 1 1 1 1 1 1 1 2 3 3 4 5 4 3 3 3 2 2 2 2 1 1 1 1 1 1 1
0 0 0 0 0 0 0 0 0 0 0 0 1 1 1 1 1 1 1 1 0 1 1 2 3 4 4 5 4 3 3 3 3 2 2 2 1 1 1 1 1 1 1
0 0 0 0 0 0 0 0 0 0 0 0 0 1 1 1 1 1 1 1 1 1 1 2 2 3 4 4 4 3 3 3 3 2 2 2 2 2 1 1 1 1 1
0 0 0 0 0 0 0 0 0 0 0 0 0 0 1 1 1 1 1 1 1 1 1 1 1 2 2 3 3 3 3 3 3 3 2 2 2 2 1 1 1 1 1
0 0 0 0 0 0 0 0 0 0 0 0 0 0 0 1 1 1 1 1 1 1 1 1 1 1 1 2 2 2 3 3 3 2 2 2 2 2 1 1 1 1 1
0 0 0 0 0 0 0 0 0 0 0 0 0 0 0 0 0 0 0 1 1 1 1 1 1 1 1 1 1 2 2 2 2 2 2 2 1 1 1 1 1 1 1
0 0 0 0 0 0 0 0 0 0 0 0 0 0 0 0 0 0 0 0 1 1 1 1 1 0 0 0 1 1 1 1 1 1 1 1 1 0 0 0 0 0 0
0 0 0 0 0 0 0 0 0 0 0 0 0 0 0 0 0 0 0 0 0 1 1 1 0 0 0 0 0 1 1 1 1 0 0 0 0 0 0 0 0 0 0
0 0 0 0 0 0 0 0 0 0 0 0 0 0 0 0 0 0 0 0 0 0 0 0 0 0 0 0 0 0 0 0 0 0 0 0 0 0 0 0 0 0 0
0 0 0 0 0 0 0 0 0 0 0 0 0 0 0 0 0 0 0 0 0 0 0 0 0 0 0 0 0 0 0 0 0 0 0 0 0 0 0 0 0 0 0
Wind_Speed
4 8 13 12 11 11 10 10 9 7 6 4 3 4 4 5 5 5 6 6 6 6 5 4 5 4 4 5 5 5 5 4 4 4 5 5 5 4 3 2 2 5 4
2 8 13 12 11 11 10 10 9 8 7 5 4 5 5 5 6 6 7 8 8 8 7 6 6 6 6 6 6 5 6 5 4 4 2 3 4 4 3 2 2 5 3
3 8 12 12 11 11 10 10 9 9 7 6 6 5 5 5 5 6 6 7 8 8 7 6 6 7 8 7 5 6 6 5 5 3 2 4 5 4 3 2 0 2 2
4 7 9 13 11 11 11 11 10 9 7 7 7 6 4 3 5 5 6 7 7 7 6 6 6 7 8 8 7 7 7 7 6 4 5 3 4 6 4 4 2 1 0
4 6 7 11 11 11 11 11 11 10 9 8 8 7 5 4 5 3 3 4 5 5 5 5 6 7 8 8 8 9 9 8 6 6 4 3 4 6 5 5 4 4 1
3 5 7 9 11 10 10 10 9 9 9 7 7 7 6 5 2 1 1 0 2 2 3 5 6 7 7 8 8 9 10 10 7 7 4 2 4 5 4 5 3 2 3
2 3 5 8 9 9 9 9 9 9 9 7 6 6 6 6 4 3 2 1 1 2 4 5 6 7 8 9 10 10 9 8 7 6 5 5 3 3 4 5 4 3 1
1 2 3 6 8 9 10 10 9 9 9 7 7 7 6 6 5 4 3 2 2 2 4 6 6 8 8 9 11 11 10 8 7 6 5 5 2 3 5 4 4 5 5
3 1 3 5 8 8 8 9 9 8 8 7 7 6 5 6 5 4 4 4 4 3 4 6 6 6 7 8 9 9 9 7 8 5 5 4 4 6 6 4 4 7 6
4 2 3 5 7 8 8 8 7 7 8 8 7 4 1 3 1 1 2 1 2 2 3 5 6 6 7 7 8 9 8 7 8 6 4 1 0 5 5 4 3 6 4
1 1 1 5 7 7 7 6 7 7 6 6 6 6 4 4 4 4 1 2 4 4 4 5 6 6 6 7 7 7 6 7 7 5 4 2 3 4 4 3 3 4 3
2 1 3 4 6 7 6 5 6 6 7 7 7 7 6 5 3 1 2 0 5 5 6 6 6 6 5 7 7 7 7 7 6 5 3 3 4 5 5 5 5 5 5
3 2 3 4 4 5 4 3 3 3 4 5 6 6 4 4 3 2 3 3 5 6 7 8 8 7 8 6 6 6 8 6 6 5 3 3 5 6 6 6 7 6 5
2 1 3 3 1 3 4 3 3 3 4 4 5 6 5 4 3 3 2 2 3 3 5 6 6 8 9 8 8 8 7 6 7 5 5 6 7 7 8 8 8 7 6
3 1 3 1 2 4 4 4 3 4 4 5 4 5 5 4 4 3 2 2 2 3 4 5 7 9 9 9 6 6 7 9 10 7 4 7 8 8 9 10 9 8 8
4 3 1 0 3 5 4 4 3 3 3 3 4 5 5 4 3 2 1 2 3 3 4 5 7 8 8 6 6 7 7 9 9 7 5 5 7 8 8 9 9 9 8
6 4 5 3 3 4 5 4 2 2 2 3 3 5 5 5 5 4 4 3 3 4 6 5 6 5 5 5 6 6 6 8 8 8 7 5 6 7 7 8 9 9 8
7 7 7 5 6 5 3 3 2 2 2 2 2 3 5 6 7 6 5 4 4 4 5 5 5 5 6 5 5 6 6 7 8 9 9 8 7 6 8 10 9 9 9
10 9 8 7 7 6 5 4 3 2 2 2 2 3 4 6 6 5 4 4 4 4 4 5 5 5 4 5 6 5 6 6 7 8 10 10 8 7 6 7 8 8 10
9 9 9 8 7 6 4 3 3 4 3 3 3 2 3 4 5 4 3 3 4 3 3 4 6 4 4 5 5 5 5 4 4 4 8 7 7 7 6 5 5 7 10
9 10 10 10 9 7 5 5 5 5 4 3 2 2 3 3 4 4 3 3 3 3 3 4 3 4 2 2 3 4 4 4 5 3 5 5 6 5 5 4 3 3 4
11 11 12 11 10 9 7 5 4 4 4 3 3 3 3 3 3 2 3 3 2 2 3 4 5 4 2 2 3 2 3 4 5 4 4 3 3 3 2 2 2 2 3
14 12 11 12 11 10 8 5 4 4 4 5 5 4 4 4 4 4 4 3 3 3 3 3 3 4 2 2 2 3 3 5 5 5 4 3 2 1 0 1 1 1 3
21 14 12 11 11 10 9 7 8 7 8 8 6 5 4 4 4 4 3 4 4 4 4 4 3 3 3 3 2 2 3 1 3 4 4 2 1 1 1 2 2 2 3
23 17 12 12 11 10 8 9 9 9 8 6 6 6 5 5 5 4 4 4 4 4 4 4 4 4 4 4 4 3 2 2 3 3 3 3 3 2 2 3 3 3 2
22 21 16 14 13 12 11 10 10 10 9 8 8 6 5 4 4 4 4 3 3 4 5 4 4 5 5 5 4 4 4 4 5 4 5 5 5 3 3 4 4 3 3
Wind_Direction
149 147 173 177 179 181 186 190 191 193 192 193 207 219 225 222 218 205 208 203 187 186 199 206 204 194 191 195 194 167 142 133 110 80 62 60 74 93 109 129 230 232 128
98 152 165 175 178 184 189 192 194 199 201 202 220 243 240 238 232 223 212 209 201 200 207 214 220 209 215 212 207 178 152 136 123 103 97 123 99 86 92 101 315 357 355
121 147 161 173 178 184 190 194 199 206 210 212 217 238 252 238 245 236 217 215 210 211 217 223 224 219 219 220 211 179 159 153 146 133 228 217 132 119 115 114 80 345 344
140 152 164 164 180 186 191 196 203 206 214 230 234 226 258 276 267 251 209 213 216 219 225 232 228 229 226 219 201 187 175 174 164 195 231 219 163 138 156 153 143 103 131
162 158 154 160 183 191 196 199 205 210 219 225 237 226 229 253 267 244 211 212 224 219 218 229 230 232 233 224 208 200 193 186 172 227 241 230 212 140 167 165 157 130 124
173 159 147 178 190 199 206 210 215 221 228 223 241 230 222 236 251 198 100 197 273 242 223 228 232 234 234 224 210 204 201 193 192 235 242 211 233 122 188 178 152 133 126
194 157 152 181 198 206 214 219 222 228 228 220 241 229 223 234 236 243 167 124 289 246 253 259 251 242 232 222 211 202 197 181 223 235 241 228 203 138 226 192 199 214 200
304 147 162 171 207 210 213 219 224 228 222 220 234 242 236 239 237 237 218 207 242 263 258 261 261 254 241 228 216 204 198 185 232 244 244 243 152 204 233 222 233 246 259
60 165 198 197 198 212 217 219 223 226 226 223 230 247 249 233 223 237 268 232 225 247 286 280 266 264 250 238 226 215 207 187 247 253 253 244 170 225 226 236 274 278 270
70 105 222 229 219 218 211 207 213 218 219 210 213 232 326 294 303 259 322 328 321 309 305 314 284 265 259 251 232 226 211 187 240 252 253 269 125 229 229 246 275 284 260
170 62 277 248 237 232 231 201 206 208 217 212 205 199 206 228 232 240 221 39 304 301 302 308 318 308 280 259 245 240 211 221 231 234 244 125 231 237 244 250 284 293 235
275 323 324 302 266 242 230 224 218 200 207 206 206 209 216 224 225 308 317 211 267 267 264 264 279 294 273 250 233 224 230 228 233 230 223 148 233 235 236 253 269 277 256
310 323 335 326 297 249 213 234 212 200 206 212 219 225 228 234 230 224 242 222 235 224 240 240 244 246 249 249 253 243 240 215 220 224 191 184 239 242 243 249 258 265 267
248 318 347 343 347 205 186 176 209 195 198 209 213 222 224 224 231 239 249 252 248 244 246 246 250 247 249 248 240 236 234 209 217 214 192 195 227 237 244 250 252 255 262
235 259 2 3 116 141 163 163 189 192 200 212 216 223 233 239 242 237 233 236 242 238 243 242 236 234 234 235 224 219 216 217 217 209 205 190 221 231 239 245 247 253 263
231 234 266 252 144 148 156 169 174 192 210 223 228 222 225 243 254 269 262 255 264 257 249 244 240 238 230 212 201 200 207 223 218 210 214 199 219 237 246 246 248 259 270
233 234 240 238 211 171 158 165 171 179 208 222 237 233 219 212 210 199 200 211 221 247 260 249 256 253 244 215 207 199 200 225 222 214 216 219 205 220 234 245 252 258 266
238 234 234 238 239 229 206 191 189 187 208 213 231 231 226 218 209 210 214 222 219 223 237 234 223 217 214 205 207 198 198 207 221 229 223 219 218 215 210 219 235 245 254
241 239 235 234 237 230 223 221 219 207 217 206 220 233 227 218 212 218 237 242 239 239 237 237 227 226 207 198 214 209 211 208 210 223 227 224 223 228 232 197 209 237 250
258 249 243 235 232 225 218 216 210 204 207 206 207 208 211 199 197 208 216 212 219 228 238 251 239 223 233 221 210 206 215 212 211 236 238 225 222 223 232 235 214 219 220
272 254 244 238 231 223 215 214 212 206 198 193 180 195 214 204 201 212 205 196 206 202 197 206 202 203 199 233 225 205 208 205 207 203 243 224 210 211 219 225 232 242 209
298 264 248 241 238 232 233 233 238 211 195 170 148 138 141 150 159 184 197 195 195 187 171 179 185 182 173 191 214 166 188 198 201 196 204 190 182 178 185 198 223 247 270
334 284 254 246 242 237 231 213 201 186 185 183 184 171 151 150 147 153 165 180 188 197 181 170 177 201 190 188 258 265 214 214 159 179 180 162 148 146 91 55 323 286 284
345 312 275 265 256 245 232 222 216 218 215 206 199 189 178 184 178 166 170 179 193 200 190 184 187 196 209 208 224 284 299 329 228 180 188 204 239 282 308 305 299 300 291
355 339 299 285 271 255 245 246 241 240 235 215 206 202 203 195 195 186 194 195 205 211 207 202 204 207 217 214 210 213 227 237 265 243 218 223 254 253 279 289 289 283 298
357 355 331 294 283 269 257 250 244 238 225 212 210 214 213 202 187 187 198 202 218 228 231 224 221 225 227 234 231 222 217 209 211 217 227 234 251 254 276 277 279 292 307